Flag for Australia Weather past 2 weeks in Traralgon, Victoria, Australia

Now
55 °F

Cool.


Feels Like: 54 °F
Forecast: 42 / 61 °F
Wind: 6 mph from Southeast

Location: Latrobe Valley Airport

Current Time: Apr 21, 2015 at 8:08:57 PM

Latest Report: Apr 21, 2015 at 6:00 PM


Visibility: N/A

Pressure: 30.42 "Hg

Humidity: 65%

Dew point: 44 °F

Location of TraralgonLocation

Historic Weather in Traralgon — Graph

°F

Traralgon temperature yesterday

Maximum temperature yesterday: 61 °F (at 2:00 PM)
Minimum temperature yesterday: 36 °F (at 6:00 AM)
Average temperature yesterday: 48 °F

Past Weeks' High & Low Weather Summary

 TemperatureHumidityPressure
High76 °F (Apr 15, 3:00 PM)100% (Apr 7, 8:00 AM)30.63 "Hg (Apr 7, 8:00 AM)
Low33 °F (Apr 21, 5:00 AM)41% (Apr 20, 3:00 PM)29.74 "Hg (Apr 6, 6:00 PM)
Average55 °F85%30.19 "Hg
* Reported Apr 6 6:00 PM — Apr 21 6:00 PM, Traralgon, Weather by CustomWeather, © 2015

Note: Actual official high and low records may vary slightly from our data, if they occured in-between our weather recording intervals... More about our weather records

Advertising

Traralgon weather history for previous 24 hours

 ConditionsComfort  
Time TempWeatherWind HumidityBarometerVisibility
6:00 PM
Tue, Apr 21
55 °FCool.6 mph65%30.42 "HgN/A
5:00 PM59 °FRefreshingly cool.7 mph56%30.41 "HgN/A
3:00 PM63 °FPassing clouds.9 mph49%30.42 "HgN/A
2:00 PM63 °FMild.9 mph51%30.41 "HgN/A
12:00 PM60 °FOvercast.8 mph61%30.46 "HgN/A
11:00 AM59 °FCool.7 mph65%30.49 "HgN/A
9:00 AM44 °FScattered clouds.3 mph100%30.52 "Hg4 mi
8:00 AM39 °FChilly.5 mph100%30.53 "HgN/A
6:00 AM33 °FPassing clouds.3 mph100%30.52 "Hg1 mi
5:00 AM33 °FChilly.No wind100%30.52 "HgN/A
3:00 AM35 °FPassing clouds.2 mph100%30.52 "HgN/A
2:00 AM35 °FChilly.No wind100%30.54 "HgN/A
12:00 AM38 °FChilly.No wind99%30.55 "HgN/A
11:00 PM
Mon, Apr 20
39 °FChilly.No wind99%30.57 "HgN/A
9:00 PM44 °FQuite cool.No wind90%30.58 "HgN/A
8:00 PM45 °FQuite cool.3 mph88%30.58 "HgN/A
Weather by CustomWeather, © 2015

See weather overviewHow to use our weather pages